Time,TemperatureF,DewpointF,PressureIn,WindDirection,WindDirectionDegrees,WindSpeedMPH,WindSpeedGustMPH,Humidity,HourlyPrecipIn,Conditions,Clouds,dailyrainin,SoftwareType,DateUTC
2013-01-15 00:05:00,38.9,29.2,30.10,NNE,25,1.0,2.0,68,0.00,,,0.00,Wunderground v.1.15,2013-01-15 06:05:00,
2013-01-15 00:10:00,38.9,29.2,30.11,NNE,20,1.0,1.0,68,0.00,,,0.00,Wunderground v.1.15,2013-01-15 06:10:00,
2013-01-15 00:20:00,38.8,29.1,30.10,NNE,23,2.0,4.0,68,0.00,,,0.00,Wunderground v.1.15,2013-01-15 06:20:00,
2013-01-15 00:25:00,38.8,29.5,30.10,North,10,2.0,4.0,69,0.00,,,0.00,Wunderground v.1.15,2013-01-15 06:25:00,
2013-01-15 00:35:00,38.3,30.1,30.11,NNE,20,3.0,4.0,72,0.00,,,0.00,Wunderground v.1.15,2013-01-15 06:35:00,
2013-01-15 00:40:00,38.2,30.0,30.11,North,10,2.0,7.0,72,0.00,,,0.00,Wunderground v.1.15,2013-01-15 06:40:00,
2013-01-15 00:50:00,37.9,30.4,30.11,NNE,14,4.0,6.0,74,0.00,,,0.00,Wunderground v.1.15,2013-01-15 06:50:00,
2013-01-15 00:55:00,37.8,30.9,30.11,NNE,24,3.0,6.0,76,0.00,,,0.00,Wunderground v.1.15,2013-01-15 06:55:00,
2013-01-15 01:05:00,37.3,31.4,30.11,NNE,24,1.0,2.0,79,0.00,,,0.00,Wunderground v.1.15,2013-01-15 07:05:00,
2013-01-15 01:10:00,37.0,31.7,30.11,NNE,24,0.0,0.0,81,0.00,,,0.00,Wunderground v.1.15,2013-01-15 07:10:00,
2013-01-15 01:20:00,36.8,32.1,30.11,NNE,24,0.0,0.0,83,0.00,,,0.00,Wunderground v.1.15,2013-01-15 07:20:00,
2013-01-15 01:25:00,36.5,32.1,30.11,NNE,24,0.0,0.0,84,0.00,,,0.00,Wunderground v.1.15,2013-01-15 07:25:00,
2013-01-15 01:35:00,36.0,32.2,30.11,NNE,17,0.0,0.0,86,0.00,,,0.00,Wunderground v.1.15,2013-01-15 07:35:00,
2013-01-15 01:40:00,35.8,32.3,30.11,NNE,17,0.0,0.0,87,0.00,,,0.00,Wunderground v.1.15,2013-01-15 07:40:00,
2013-01-15 01:50:00,35.5,32.3,30.11,North,10,1.0,1.0,88,0.00,,,0.00,Wunderground v.1.15,2013-01-15 07:50:00,
2013-01-15 01:55:00,35.5,32.6,30.10,North,10,1.0,3.0,89,0.00,,,0.00,Wunderground v.1.15,2013-01-15 07:55:00,
2013-01-15 02:05:00,35.2,32.6,30.11,North,7,4.0,4.0,90,0.00,,,0.00,Wunderground v.1.15,2013-01-15 08:05:00,
2013-01-15 02:10:00,35.0,32.6,30.11,North,7,2.0,2.0,91,0.00,,,0.00,Wunderground v.1.15,2013-01-15 08:10:00,
2013-01-15 02:20:00,34.9,32.8,30.11,North,7,2.0,4.0,92,0.00,,,0.00,Wunderground v.1.15,2013-01-15 08:20:00,
2013-01-15 02:25:00,34.9,32.8,30.11,North,4,4.0,4.0,92,0.00,,,0.00,Wunderground v.1.15,2013-01-15 08:25:00,
2013-01-15 02:35:00,34.9,33.1,30.11,North,4,1.0,3.0,93,0.00,,,0.00,Wunderground v.1.15,2013-01-15 08:35:00,
2013-01-15 02:40:00,34.9,33.1,30.11,North,3,1.0,1.0,93,0.00,,,0.00,Wunderground v.1.15,2013-01-15 08:40:00,
2013-01-15 02:50:00,34.6,32.8,30.11,North,3,2.0,5.0,93,0.00,,,0.01,Wunderground v.1.15,2013-01-15 08:50:00,
2013-01-15 02:55:00,34.7,32.9,30.11,North,1,2.0,5.0,93,0.00,,,0.01,Wunderground v.1.15,2013-01-15 08:55:00,
2013-01-15 03:05:00,34.4,32.9,30.12,North,354,2.0,7.0,94,0.00,,,0.01,Wunderground v.1.15,2013-01-15 09:05:00,
2013-01-15 03:10:00,34.4,32.9,30.12,North,0,4.0,4.0,94,0.00,,,0.01,Wunderground v.1.15,2013-01-15 09:10:00,
2013-01-15 03:20:00,34.3,32.8,30.12,North,352,3.0,9.0,94,0.00,,,0.02,Wunderground v.1.15,2013-01-15 09:20:00,
2013-01-15 03:25:00,34.1,32.6,30.12,NNW,340,4.0,9.0,94,0.00,,,0.02,Wunderground v.1.15,2013-01-15 09:25:00,
2013-01-15 03:35:00,33.8,32.3,30.12,North,0,4.0,8.0,94,0.00,,,0.02,Wunderground v.1.15,2013-01-15 09:35:00,
2013-01-15 03:40:00,33.8,32.5,30.11,North,354,3.0,3.0,95,0.00,,,0.02,Wunderground v.1.15,2013-01-15 09:40:00,
2013-01-15 03:50:00,34.0,32.7,30.11,NNW,347,0.0,0.0,95,0.00,,,0.02,Wunderground v.1.15,2013-01-15 09:50:00,
2013-01-15 03:55:00,34.0,32.7,30.12,North,354,0.0,0.0,95,0.00,,,0.02,Wunderground v.1.15,2013-01-15 09:55:00,
2013-01-15 04:05:00,33.8,32.5,30.11,North,354,3.0,3.0,95,0.00,,,0.02,Wunderground v.1.15,2013-01-15 10:05:00,
2013-01-15 04:10:00,33.8,32.5,30.10,North,354,2.0,2.0,95,0.00,,,0.02,Wunderground v.1.15,2013-01-15 10:10:00,
2013-01-15 04:20:00,33.8,32.5,30.10,North,352,0.0,0.0,95,0.00,,,0.03,Wunderground v.1.15,2013-01-15 10:20:00,
2013-01-15 04:25:00,33.8,32.8,30.10,North,357,0.0,0.0,96,0.00,,,0.03,Wunderground v.1.15,2013-01-15 10:25:00,
2013-01-15 04:35:00,33.7,32.7,30.10,North,0,2.0,2.0,96,0.00,,,0.03,Wunderground v.1.15,2013-01-15 10:35:00,
2013-01-15 04:40:00,33.7,32.7,30.11,North,349,2.0,4.0,96,0.00,,,0.03,Wunderground v.1.15,2013-01-15 10:40:00,
2013-01-15 04:50:00,33.8,32.8,30.11,NNW,343,0.0,0.0,96,0.00,,,0.03,Wunderground v.1.15,2013-01-15 10:50:00,
2013-01-15 04:55:00,33.8,32.8,30.11,North,353,1.0,4.0,96,0.00,,,0.03,Wunderground v.1.15,2013-01-15 10:55:00,
2013-01-15 05:05:00,33.7,32.7,30.11,North,349,2.0,2.0,96,0.00,,,0.03,Wunderground v.1.15,2013-01-15 11:05:00,
2013-01-15 05:10:00,33.7,33.7,30.11,NNW,347,3.0,5.0,100,0.00,,,0.03,Wunderground v.1.15,2013-01-15 11:10:00,
2013-01-15 05:20:00,33.7,33.7,30.11,North,359,3.0,3.0,100,0.00,,,0.04,Wunderground v.1.15,2013-01-15 11:20:00,
2013-01-15 05:25:00,33.7,33.7,30.11,North,349,2.0,3.0,100,0.00,,,0.04,Wunderground v.1.15,2013-01-15 11:25:00,
2013-01-15 05:35:00,33.7,33.7,30.11,North,0,0.0,0.0,100,0.00,,,0.04,Wunderground v.1.15,2013-01-15 11:35:00,
2013-01-15 05:40:00,33.7,33.7,30.11,North,0,0.0,0.0,100,0.00,,,0.04,Wunderground v.1.15,2013-01-15 11:40:00,
2013-01-15 05:50:00,33.5,33.5,30.12,NNW,346,3.0,3.0,100,0.00,,,0.04,Wunderground v.1.15,2013-01-15 11:50:00,
2013-01-15 05:55:00,33.4,33.4,30.11,North,0,5.0,5.0,100,0.00,,,0.04,Wunderground v.1.15,2013-01-15 11:55:00,
2013-01-15 06:05:00,33.4,33.4,30.12,North,357,5.0,6.0,100,0.00,,,0.05,Wunderground v.1.15,2013-01-15 12:05:00,
2013-01-15 06:10:00,33.2,33.2,30.12,NNW,344,5.0,5.0,100,0.00,,,0.05,Wunderground v.1.15,2013-01-15 12:10:00,
2013-01-15 06:20:00,33.1,33.1,30.12,North,0,1.0,1.0,100,0.00,,,0.05,Wunderground v.1.15,2013-01-15 12:20:00,
2013-01-15 06:25:00,33.1,33.1,30.12,NNW,346,1.0,1.0,100,0.00,,,0.05,Wunderground v.1.15,2013-01-15 12:25:00,
2013-01-15 06:35:00,33.1,33.1,30.13,NNW,346,2.0,3.0,100,0.00,,,0.05,Wunderground v.1.15,2013-01-15 12:35:00,
2013-01-15 06:40:00,33.1,33.1,30.13,North,0,2.0,5.0,100,0.00,,,0.05,Wunderground v.1.15,2013-01-15 12:40:00,
2013-01-15 06:50:00,33.1,33.1,30.13,North,0,3.0,3.0,100,0.00,,,0.05,Wunderground v.1.15,2013-01-15 12:50:00,
2013-01-15 06:55:00,33.1,33.1,30.14,North,0,1.0,10.0,100,0.00,,,0.05,Wunderground v.1.15,2013-01-15 12:55:00,
2013-01-15 07:05:00,33.1,33.1,30.14,North,0,1.0,1.0,100,0.00,,,0.05,Wunderground v.1.15,2013-01-15 13:05:00,
2013-01-15 07:10:00,33.2,33.2,30.14,North,356,0.0,0.0,100,0.00,,,0.05,Wunderground v.1.15,2013-01-15 13:10:00,
2013-01-15 07:20:00,33.2,33.2,30.13,North,357,0.0,0.0,100,0.00,,,0.05,Wunderground v.1.15,2013-01-15 13:20:00,
2013-01-15 07:25:00,33.2,33.2,30.14,North,353,0.0,0.0,100,0.00,,,0.05,Wunderground v.1.15,2013-01-15 13:25:00,
2013-01-15 07:35:00,33.2,33.2,30.14,North,359,0.0,0.0,100,0.00,,,0.05,Wunderground v.1.15,2013-01-15 13:35:00,
2013-01-15 07:40:00,33.1,33.1,30.14,North,0,0.0,0.0,100,0.00,,,0.05,Wunderground v.1.15,2013-01-15 13:40:00,
2013-01-15 07:50:00,32.9,32.9,30.15,North,0,2.0,2.0,100,0.00,,,0.05,Wunderground v.1.15,2013-01-15 13:50:00,
2013-01-15 07:55:00,32.9,32.9,30.15,NNW,343,5.0,7.0,100,0.00,,,0.05,Wunderground v.1.15,2013-01-15 13:55:00,
2013-01-15 08:05:00,32.8,32.8,30.15,North,0,4.0,9.0,100,0.00,,,0.05,Wunderground v.1.15,2013-01-15 14:05:00,
2013-01-15 08:10:00,32.8,32.8,30.15,North,0,3.0,3.0,100,0.00,,,0.05,Wunderground v.1.15,2013-01-15 14:10:00,
2013-01-15 08:20:00,32.7,32.7,30.15,North,352,7.0,12.0,100,0.00,,,0.05,Wunderground v.1.15,2013-01-15 14:20:00,
2013-01-15 08:25:00,32.5,32.5,30.17,NNW,336,7.0,12.0,100,0.00,,,0.05,Wunderground v.1.15,2013-01-15 14:25:00,
2013-01-15 08:35:00,32.7,32.7,30.18,North,4,5.0,6.0,100,0.00,,,0.05,Wunderground v.1.15,2013-01-15 14:35:00,
2013-01-15 08:40:00,32.7,32.7,30.18,NNW,347,4.0,9.0,100,0.00,,,0.05,Wunderground v.1.15,2013-01-15 14:40:00,
2013-01-15 08:50:00,32.7,32.7,30.17,NNW,342,4.0,7.0,100,0.00,,,0.05,Wunderground v.1.15,2013-01-15 14:50:00,
2013-01-15 08:55:00,32.8,32.8,30.17,North,350,4.0,10.0,100,0.00,,,0.05,Wunderground v.1.15,2013-01-15 14:55:00,
2013-01-15 09:05:00,32.9,32.9,30.17,North,356,4.0,8.0,100,0.00,,,0.05,Wunderground v.1.15,2013-01-15 15:05:00,
2013-01-15 09:10:00,32.9,32.9,30.17,North,349,4.0,6.0,100,0.00,,,0.05,Wunderground v.1.15,2013-01-15 15:10:00,
2013-01-15 09:20:00,32.9,32.9,30.17,North,357,5.0,5.0,100,0.00,,,0.05,Wunderground v.1.15,2013-01-15 15:20:00,
2013-01-15 09:25:00,32.8,32.8,30.17,North,0,4.0,7.0,100,0.00,,,0.05,Wunderground v.1.15,2013-01-15 15:25:00,
2013-01-15 09:35:00,32.8,32.8,30.17,North,0,6.0,7.0,100,0.00,,,0.05,Wunderground v.1.15,2013-01-15 15:35:00,
2013-01-15 09:40:00,32.7,32.7,30.17,North,1,8.0,10.0,100,0.00,,,0.05,Wunderground v.1.15,2013-01-15 15:40:00,
2013-01-15 09:50:00,32.8,32.8,30.17,North,0,5.0,8.0,100,0.00,,,0.05,Wunderground v.1.15,2013-01-15 15:50:00,
2013-01-15 09:55:00,32.8,32.8,30.17,North,0,4.0,8.0,100,0.00,,,0.05,Wunderground v.1.15,2013-01-15 15:55:00,
2013-01-15 10:05:00,32.9,32.9,30.17,North,0,2.0,4.0,100,0.00,,,0.05,Wunderground v.1.15,2013-01-15 16:05:00,
2013-01-15 10:10:00,32.9,32.9,30.17,NNW,347,3.0,5.0,100,0.00,,,0.05,Wunderground v.1.15,2013-01-15 16:10:00,
2013-01-15 10:20:00,32.8,32.8,30.18,NNW,346,7.0,11.0,100,0.00,,,0.05,Wunderground v.1.15,2013-01-15 16:20:00,
2013-01-15 10:25:00,32.8,32.8,30.18,North,357,7.0,7.0,100,0.00,,,0.05,Wunderground v.1.15,2013-01-15 16:25:00,
2013-01-15 10:35:00,32.9,32.9,30.17,NNW,335,6.0,7.0,100,0.00,,,0.05,Wunderground v.1.15,2013-01-15 16:35:00,
2013-01-15 10:40:00,32.9,32.9,30.17,North,356,6.0,7.0,100,0.00,,,0.05,Wunderground v.1.15,2013-01-15 16:40:00,
2013-01-15 10:50:00,33.1,33.1,30.18,NNW,339,5.0,6.0,100,0.00,,,0.05,Wunderground v.1.15,2013-01-15 16:50:00,
2013-01-15 10:55:00,33.1,33.1,30.18,NNW,339,6.0,6.0,100,0.00,,,0.05,Wunderground v.1.15,2013-01-15 16:55:00,
2013-01-15 11:05:00,33.2,33.2,30.17,NNW,344,4.0,14.0,100,0.00,,,0.05,Wunderground v.1.15,2013-01-15 17:05:00,
2013-01-15 11:10:00,33.2,33.2,30.17,NNW,342,6.0,7.0,100,0.00,,,0.05,Wunderground v.1.15,2013-01-15 17:10:00,
2013-01-15 11:20:00,33.4,33.4,30.17,North,353,6.0,6.0,100,0.00,,,0.05,Wunderground v.1.15,2013-01-15 17:20:00,
2013-01-15 11:25:00,33.2,33.2,30.17,North,1,7.0,8.0,100,0.00,,,0.05,Wunderground v.1.15,2013-01-15 17:25:00,
2013-01-15 11:35:00,33.2,33.2,30.16,North,356,7.0,10.0,100,0.00,,,0.05,Wunderground v.1.15,2013-01-15 17:35:00,
2013-01-15 11:40:00,33.2,33.2,30.15,North,352,6.0,6.0,100,0.00,,,0.05,Wunderground v.1.15,2013-01-15 17:40:00,
2013-01-15 11:50:00,33.4,33.4,30.16,NNW,344,8.0,14.0,100,0.00,,,0.05,Wunderground v.1.15,2013-01-15 17:50:00,
2013-01-15 11:55:00,33.4,33.1,30.15,North,0,7.0,14.0,99,0.00,,,0.05,Wunderground v.1.15,2013-01-15 17:55:00,
2013-01-15 12:05:00,33.4,32.4,30.15,NNW,347,6.0,11.0,96,0.00,,,0.05,Wunderground v.1.15,2013-01-15 18:05:00,
2013-01-15 12:10:00,33.2,32.2,30.15,North,0,8.0,8.0,96,0.00,,,0.05,Wunderground v.1.15,2013-01-15 18:10:00,
2013-01-15 12:20:00,33.1,31.8,30.14,NW,323,6.0,7.0,95,0.00,,,0.05,Wunderground v.1.15,2013-01-15 18:20:00,
2013-01-15 12:25:00,32.9,31.6,30.15,North,354,7.0,7.0,95,0.00,,,0.05,Wunderground v.1.15,2013-01-15 18:25:00,
2013-01-15 12:35:00,33.2,32.2,30.14,North,357,7.0,12.0,96,0.00,,,0.05,Wunderground v.1.15,2013-01-15 18:35:00,
2013-01-15 12:40:00,33.2,31.9,30.14,North,350,6.0,7.0,95,0.00,,,0.05,Wunderground v.1.15,2013-01-15 18:40:00,
2013-01-15 12:50:00,33.5,32.2,30.14,NNW,335,8.0,8.0,95,0.00,,,0.05,Wunderground v.1.15,2013-01-15 18:50:00,
2013-01-15 12:55:00,33.7,32.4,30.13,North,0,8.0,8.0,95,0.00,,,0.05,Wunderground v.1.15,2013-01-15 18:55:00,
2013-01-15 13:05:00,33.5,32.2,30.13,NNW,339,8.0,12.0,95,0.00,,,0.05,Wunderground v.1.15,2013-01-15 19:05:00,
2013-01-15 13:10:00,33.8,32.5,30.13,NW,322,8.0,11.0,95,0.00,,,0.05,Wunderground v.1.15,2013-01-15 19:10:00,
2013-01-15 13:20:00,34.1,32.8,30.13,NNW,332,5.0,9.0,95,0.00,,,0.05,Wunderground v.1.15,2013-01-15 19:20:00,
2013-01-15 13:25:00,34.1,32.8,30.13,NNW,347,5.0,9.0,95,0.00,,,0.05,Wunderground v.1.15,2013-01-15 19:25:00,
2013-01-15 13:35:00,34.3,32.8,30.12,North,356,6.0,8.0,94,0.00,,,0.05,Wunderground v.1.15,2013-01-15 19:35:00,
2013-01-15 13:40:00,34.4,32.9,30.12,NNW,337,6.0,11.0,94,0.00,,,0.05,Wunderground v.1.15,2013-01-15 19:40:00,
2013-01-15 13:50:00,34.7,33.2,30.12,NNW,328,8.0,13.0,94,0.00,,,0.05,Wunderground v.1.15,2013-01-15 19:50:00,
2013-01-15 13:55:00,34.7,33.2,30.12,West,281,7.0,13.0,94,0.00,,,0.05,Wunderground v.1.15,2013-01-15 19:55:00,
2013-01-15 14:05:00,35.0,33.4,30.11,NNE,17,8.0,14.0,94,0.00,,,0.05,Wunderground v.1.15,2013-01-15 20:05:00,
2013-01-15 14:10:00,35.0,33.4,30.12,North,4,7.0,7.0,94,0.00,,,0.05,Wunderground v.1.15,2013-01-15 20:10:00,
2013-01-15 14:20:00,35.0,33.2,30.11,NNW,329,8.0,12.0,93,0.00,,,0.05,Wunderground v.1.15,2013-01-15 20:20:00,
2013-01-15 14:25:00,35.2,33.4,30.11,NNE,27,9.0,12.0,93,0.00,,,0.05,Wunderground v.1.15,2013-01-15 20:25:00,
2013-01-15 14:35:00,35.2,33.1,30.12,NNW,336,7.0,8.0,92,0.00,,,0.05,Wunderground v.1.15,2013-01-15 20:35:00,
2013-01-15 14:40:00,35.3,33.2,30.11,NNW,344,6.0,7.0,92,0.00,,,0.05,Wunderground v.1.15,2013-01-15 20:40:00,
2013-01-15 14:50:00,35.3,32.9,30.11,North,353,8.0,10.0,91,0.00,,,0.05,Wunderground v.1.15,2013-01-15 20:50:00,
2013-01-15 14:55:00,35.3,32.9,30.11,North,0,8.0,10.0,91,0.00,,,0.05,Wunderground v.1.15,2013-01-15 20:55:00,
2013-01-15 15:05:00,35.5,32.9,30.13,NNW,329,6.0,8.0,90,0.00,,,0.05,Wunderground v.1.15,2013-01-15 21:05:00,
2013-01-15 15:10:00,35.3,32.4,30.14,North,0,6.0,6.0,89,0.00,,,0.05,Wunderground v.1.15,2013-01-15 21:10:00,
2013-01-15 15:20:00,35.3,32.4,30.14,NNW,346,4.0,10.0,89,0.00,,,0.05,Wunderground v.1.15,2013-01-15 21:20:00,
2013-01-15 15:25:00,35.5,32.6,30.14,NW,323,7.0,10.0,89,0.00,,,0.05,Wunderground v.1.15,2013-01-15 21:25:00,
2013-01-15 15:35:00,35.5,32.3,30.14,NW,323,8.0,13.0,88,0.00,,,0.05,Wunderground v.1.15,2013-01-15 21:35:00,
2013-01-15 15:40:00,35.5,32.3,30.13,NW,326,7.0,12.0,88,0.00,,,0.05,Wunderground v.1.15,2013-01-15 21:40:00,
2013-01-15 15:50:00,35.5,32.3,30.13,NNW,347,6.0,7.0,88,0.00,,,0.05,Wunderground v.1.15,2013-01-15 21:50:00,
2013-01-15 15:55:00,35.5,32.3,30.13,NNW,333,5.0,13.0,88,0.00,,,0.05,Wunderground v.1.15,2013-01-15 21:55:00,
2013-01-15 16:05:00,35.5,32.0,30.14,NNW,332,7.0,7.0,87,0.00,,,0.05,Wunderground v.1.15,2013-01-15 22:05:00,
2013-01-15 16:10:00,35.3,31.5,30.14,North,0,7.0,7.0,86,0.00,,,0.05,Wunderground v.1.15,2013-01-15 22:10:00,
2013-01-15 16:20:00,35.5,31.7,30.14,NNW,336,7.0,7.0,86,0.00,,,0.05,Wunderground v.1.15,2013-01-15 22:20:00,
2013-01-15 16:25:00,35.6,31.8,30.14,NNW,336,7.0,7.0,86,0.00,,,0.05,Wunderground v.1.15,2013-01-15 22:25:00,
2013-01-15 16:35:00,35.8,32.0,30.14,NNW,347,3.0,5.0,86,0.00,,,0.05,Wunderground v.1.15,2013-01-15 22:35:00,
2013-01-15 16:40:00,35.9,32.1,30.15,NW,325,2.0,2.0,86,0.00,,,0.05,Wunderground v.1.15,2013-01-15 22:40:00,
2013-01-15 16:50:00,36.0,32.2,30.16,North,0,6.0,6.0,86,0.00,,,0.05,Wunderground v.1.15,2013-01-15 22:50:00,
2013-01-15 16:55:00,36.0,31.9,30.16,North,350,6.0,14.0,85,0.00,,,0.05,Wunderground v.1.15,2013-01-15 22:55:00,
2013-01-15 17:05:00,36.0,31.6,30.17,NW,305,8.0,8.0,84,0.00,,,0.05,Wunderground v.1.15,2013-01-15 23:05:00,
2013-01-15 17:10:00,36.0,31.6,30.17,NNW,335,7.0,14.0,84,0.00,,,0.05,Wunderground v.1.15,2013-01-15 23:10:00,
2013-01-15 17:20:00,35.9,31.2,30.17,NNW,336,6.0,6.0,83,0.00,,,0.05,Wunderground v.1.15,2013-01-15 23:20:00,
2013-01-15 17:25:00,35.9,31.5,30.17,NW,322,4.0,6.0,84,0.00,,,0.05,Wunderground v.1.15,2013-01-15 23:25:00,
2013-01-15 17:35:00,35.9,31.2,30.18,NNW,343,4.0,4.0,83,0.00,,,0.05,Wunderground v.1.15,2013-01-15 23:35:00,
2013-01-15 17:40:00,35.8,30.8,30.18,NNW,342,6.0,6.0,82,0.00,,,0.05,Wunderground v.1.15,2013-01-15 23:40:00,
2013-01-15 17:50:00,35.8,31.1,30.18,NW,318,3.0,3.0,83,0.00,,,0.05,Wunderground v.1.15,2013-01-15 23:50:00,
2013-01-15 17:55:00,35.6,30.3,30.18,North,0,4.0,7.0,81,0.00,,,0.05,Wunderground v.1.15,2013-01-15 23:55:00,
2013-01-15 18:05:00,35.6,30.0,30.18,NNW,340,5.0,5.0,80,0.00,,,0.05,Wunderground v.1.15,2013-01-16 00:05:00,
2013-01-15 18:10:00,35.6,30.0,30.19,NNW,343,3.0,3.0,80,0.00,,,0.05,Wunderground v.1.15,2013-01-16 00:10:00,
2013-01-15 18:20:00,35.6,29.1,30.19,North,0,4.0,4.0,77,0.00,,,0.05,Wunderground v.1.15,2013-01-16 00:20:00,
2013-01-15 18:25:00,35.6,29.1,30.20,NNW,340,2.0,4.0,77,0.00,,,0.05,Wunderground v.1.15,2013-01-16 00:25:00,
2013-01-15 18:35:00,35.8,29.6,30.19,NW,325,1.0,6.0,78,0.00,,,0.05,Wunderground v.1.15,2013-01-16 00:35:00,
2013-01-15 18:40:00,35.8,29.6,30.20,North,352,2.0,2.0,78,0.00,,,0.05,Wunderground v.1.15,2013-01-16 00:40:00,
2013-01-15 18:50:00,35.8,29.3,30.20,NNW,347,3.0,7.0,77,0.00,,,0.05,Wunderground v.1.15,2013-01-16 00:50:00,
2013-01-15 18:55:00,35.8,28.3,30.20,NNW,340,5.0,7.0,74,0.00,,,0.05,Wunderground v.1.15,2013-01-16 00:55:00,
2013-01-15 19:05:00,35.8,28.3,30.20,NNW,339,5.0,5.0,74,0.00,,,0.05,Wunderground v.1.15,2013-01-16 01:05:00,
2013-01-15 19:10:00,35.6,27.8,30.20,North,359,6.0,6.0,73,0.00,,,0.05,Wunderground v.1.15,2013-01-16 01:10:00,
2013-01-15 19:20:00,35.6,27.5,30.20,North,357,4.0,4.0,72,0.00,,,0.05,Wunderground v.1.15,2013-01-16 01:20:00,
2013-01-15 19:25:00,35.5,27.7,30.20,North,1,3.0,6.0,73,0.00,,,0.05,Wunderground v.1.15,2013-01-16 01:25:00,
2013-01-15 19:35:00,35.3,27.2,30.20,North,352,6.0,6.0,72,0.00,,,0.05,Wunderground v.1.15,2013-01-16 01:35:00,
2013-01-15 19:40:00,35.3,27.2,30.20,NNW,344,6.0,6.0,72,0.00,,,0.05,Wunderground v.1.15,2013-01-16 01:40:00,
2013-01-15 19:50:00,35.2,27.1,30.20,North,0,4.0,4.0,72,0.00,,,0.05,Wunderground v.1.15,2013-01-16 01:50:00,
2013-01-15 19:55:00,35.2,27.4,30.20,NNW,342,3.0,4.0,73,0.00,,,0.05,Wunderground v.1.15,2013-01-16 01:55:00,
2013-01-15 20:05:00,35.0,27.2,30.20,NNW,342,3.0,4.0,73,0.00,,,0.05,Wunderground v.1.15,2013-01-16 02:05:00,
2013-01-15 20:10:00,34.9,27.5,30.20,NNW,333,2.0,3.0,74,0.00,,,0.05,Wunderground v.1.15,2013-01-16 02:10:00,
2013-01-15 20:20:00,34.7,27.3,30.19,NNW,339,3.0,6.0,74,0.00,,,0.05,Wunderground v.1.15,2013-01-16 02:20:00,
2013-01-15 20:25:00,34.6,27.5,30.19,NNW,344,4.0,6.0,75,0.00,,,0.05,Wunderground v.1.15,2013-01-16 02:25:00,
2013-01-15 20:35:00,34.4,27.3,30.21,NNW,342,1.0,3.0,75,0.00,,,0.05,Wunderground v.1.15,2013-01-16 02:35:00,
2013-01-15 20:40:00,34.3,27.5,30.22,NNW,337,0.0,0.0,76,0.00,,,0.05,Wunderground v.1.15,2013-01-16 02:40:00,
2013-01-15 20:50:00,34.1,27.6,30.23,NNW,335,0.0,0.0,77,0.00,,,0.05,Wunderground v.1.15,2013-01-16 02:50:00,
2013-01-15 20:55:00,34.0,27.5,30.24,NNW,333,0.0,0.0,77,0.00,,,0.05,Wunderground v.1.15,2013-01-16 02:55:00,
2013-01-15 21:05:00,33.8,27.4,30.24,NNW,333,0.0,0.0,77,0.00,,,0.05,Wunderground v.1.15,2013-01-16 03:05:00,
2013-01-15 21:10:00,33.5,27.4,30.22,NNW,336,0.0,3.0,78,0.00,,,0.05,Wunderground v.1.15,2013-01-16 03:10:00,
2013-01-15 21:20:00,33.7,27.3,30.22,NNW,344,3.0,3.0,77,0.00,,,0.05,Wunderground v.1.15,2013-01-16 03:20:00,
2013-01-15 21:25:00,33.7,26.9,30.22,NNW,336,1.0,3.0,76,0.00,,,0.05,Wunderground v.1.15,2013-01-16 03:25:00,
2013-01-15 21:35:00,33.7,26.9,30.22,NNW,337,0.0,1.0,76,0.00,,,0.05,Wunderground v.1.15,2013-01-16 03:35:00,
2013-01-15 21:40:00,33.7,26.9,30.22,North,352,1.0,6.0,76,0.00,,,0.05,Wunderground v.1.15,2013-01-16 03:40:00,
2013-01-15 21:50:00,33.5,26.4,30.22,NW,320,3.0,3.0,75,0.00,,,0.05,Wunderground v.1.15,2013-01-16 03:50:00,
2013-01-15 21:55:00,33.5,26.1,30.22,NNW,346,2.0,3.0,74,0.00,,,0.05,Wunderground v.1.15,2013-01-16 03:55:00,
2013-01-15 22:05:00,33.4,26.0,30.24,NNW,346,2.0,3.0,74,0.00,,,0.05,Wunderground v.1.15,2013-01-16 04:05:00,
2013-01-15 22:10:00,33.2,25.8,30.24,NNW,330,0.0,0.0,74,0.00,,,0.05,Wunderground v.1.15,2013-01-16 04:10:00,
2013-01-15 22:20:00,33.1,25.4,30.24,North,4,2.0,2.0,73,0.00,,,0.05,Wunderground v.1.15,2013-01-16 04:20:00,
2013-01-15 22:25:00,32.9,25.2,30.25,North,350,2.0,2.0,73,0.00,,,0.05,Wunderground v.1.15,2013-01-16 04:25:00,
2013-01-15 22:35:00,32.7,25.0,30.26,NNW,344,0.0,1.0,73,0.00,,,0.05,Wunderground v.1.15,2013-01-16 04:35:00,
2013-01-15 22:40:00,32.7,25.0,30.25,NNW,343,0.0,0.0,73,0.00,,,0.05,Wunderground v.1.15,2013-01-16 04:40:00,
2013-01-15 22:50:00,32.4,24.7,30.26,NNW,340,0.0,0.0,73,0.00,,,0.05,Wunderground v.1.15,2013-01-16 04:50:00,
2013-01-15 22:55:00,32.2,24.5,30.26,NNW,340,0.0,0.0,73,0.00,,,0.05,Wunderground v.1.15,2013-01-16 04:55:00,
2013-01-15 23:05:00,31.9,24.2,30.27,NNW,340,0.0,0.0,73,0.00,,,0.05,Wunderground v.1.15,2013-01-16 05:05:00,
2013-01-15 23:10:00,31.8,24.1,30.27,NNW,339,0.0,0.0,73,0.00,,,0.05,Wunderground v.1.15,2013-01-16 05:10:00,
2013-01-15 23:15:00,31.8,24.1,30.27,NNW,339,0.0,0.0,73,0.00,,,0.05,Wunderground v.1.15,2013-01-16 05:15:00,
2013-01-15 23:20:00,31.6,24.3,30.27,NNW,339,0.0,0.0,74,0.00,,,0.05,Wunderground v.1.15,2013-01-16 05:20:00,
2013-01-15 23:25:00,31.5,24.2,30.26,NNW,339,0.0,0.0,74,0.00,,,0.05,Wunderground v.1.15,2013-01-16 05:25:00,
2013-01-15 23:35:00,31.2,23.9,30.27,NNW,339,0.0,0.0,74,0.00,,,0.05,Wunderground v.1.15,2013-01-16 05:35:00,
2013-01-15 23:40:00,31.0,24.0,30.27,NNW,339,0.0,0.0,75,0.00,,,0.05,Wunderground v.1.15,2013-01-16 05:40:00,
2013-01-15 23:45:00,31.0,23.7,30.27,NNW,339,0.0,0.0,74,0.00,,,0.05,Wunderground v.1.15,2013-01-16 05:45:00,
2013-01-15 23:50:00,30.9,23.9,30.27,NNW,339,0.0,0.0,75,0.00,,,0.05,Wunderground v.1.15,2013-01-16 05:50:00,
2013-01-15 23:55:00,30.9,24.2,30.27,NNW,339,0.0,0.0,76,0.00,,,0.05,Wunderground v.1.15,2013-01-16 05:55:00,